Weather History for KTVL - August, 2014

Change the Weather History Date:

Monday, August 18, 2014

  Actual Average Record
Temperature  
Mean Temperature 62 °F 60 °F  
Max Temperature 83 °F 80 °F 89 °F (2015)
Min Temperature 40 °F 40 °F 28 °F (1978)
Degree Days  
Heating Degree Days 3 5  
Month to date heating degree days 42 78  
Since 1 June heating degree days 266 526  
Since 1 July heating degree days 56 216  
Cooling Degree Days 0 0  
Month to date cooling degree days 8 7  
Year to date cooling degree days 95 26  
Since 1 June cooling degree days 95 26  
Growing Degree Days 10 (Base 50)    
Moisture  
Dew Point 31 °F    
Average Humidity 38    
Maximum Humidity 64    
Minimum Humidity 11    
Precipitation  
Precipitation 0.00 in - 0.26 in (1975)
Month to date precipitation 0.98  
Year to date precipitation 13.88  
Sea Level Pressure  
Sea Level Pressure 29.94 in    
Wind  
Wind Speed 2 mph (SSW)    
Max Wind Speed 15 mph    
Max Gust Speed 21 mph    
Visibility 10 miles    
Events      
T = Trace of Precipitation, MM = Missing Value Source: NWS Daily Summary

Daily Weather History Graph

Daily Weather History Graph

Search for Another Location

Airport or City:

Trip Planner

Search our weather history database for the weather conditions in past years. The results will help you decide how hot, cold, wet, or windy it might be!

Date:

Astronomy

Aug. 18, 2014 Rise Set
Actual Time 6:16 AM PDT 7:50 PM PDT
Civil Twilight 5:48 AM PDT 8:18 PM PDT
Nautical Twilight 5:14 AM PDT 8:52 PM PDT
Astronomical Twilight 4:38 AM PDT 9:28 PM PDT
Moon 12:27 AM PDT (8/18) 2:57 PM PDT (8/18)
Length of Visible Light 14h 30m
Length of Day
13h 34m
Last Quarter, 37% of the Moon is Illuminated
Aug 18
Last Quarter
Aug 25
New
Sep 2
First Quarter
Sep 8
Full
Sep 15
Last Quarter

Hourly Weather History & Observations

Time (PDT) Temp. Windchill Dew Point Humidity Pressure Visibility Wind Dir Wind Speed Gust Speed Precip Events Conditions
12:53 AM 51.1 °F - 34.0 °F 52% 30.00 in 10.0 mi Calm Calm - N/A   Clear
1:53 AM 48.9 °F - 32.0 °F 52% 29.99 in 10.0 mi Calm Calm - N/A   Clear
2:53 AM 46.0 °F - 32.0 °F 58% 30.00 in 10.0 mi Calm Calm - N/A   Clear
3:53 AM 43.0 °F 40.3 °F 30.9 °F 62% 30.01 in 10.0 mi SSW 4.6 mph - N/A   Clear
4:53 AM 43.0 °F - 28.9 °F 58% 30.01 in 10.0 mi Calm Calm - N/A   Clear
5:53 AM 41.0 °F 39.0 °F 28.9 °F 62% 30.00 in 10.0 mi SSW 3.5 mph - N/A   Clear
6:53 AM 39.9 °F 36.7 °F 28.0 °F 63% 30.01 in 10.0 mi South 4.6 mph - N/A   Clear
7:53 AM 50.0 °F - 30.9 °F 48% 30.00 in 10.0 mi Calm Calm - N/A   Clear
8:53 AM 63.0 °F - 28.0 °F 27% 29.98 in 10.0 mi Calm Calm - N/A   Clear
9:53 AM 73.0 °F - 37.0 °F 27% 29.94 in 10.0 mi Variable 3.5 mph - N/A   Clear
10:53 AM 75.0 °F - 39.9 °F 28% 29.94 in 10.0 mi Variable 4.6 mph - N/A   Clear
11:53 AM 78.1 °F - 21.0 °F 12% 29.94 in 10.0 mi South 8.1 mph - N/A   Clear
12:53 PM 79.0 °F - 21.9 °F 12% 29.92 in 10.0 mi Variable 5.8 mph - N/A   Clear
1:53 PM 81.0 °F - 23.0 °F 12% 29.91 in 10.0 mi Variable 4.6 mph - N/A   Clear
2:53 PM 82.0 °F - 23.0 °F 11% 29.89 in 10.0 mi Variable 4.6 mph - N/A   Clear
3:53 PM 80.1 °F - 26.1 °F 14% 29.89 in 10.0 mi Variable 5.8 mph - N/A   Clear
4:53 PM 79.0 °F - 30.0 °F 17% 29.89 in 10.0 mi WSW 8.1 mph 17.3 mph N/A   Clear
5:53 PM 77.0 °F - 32.0 °F 19% 29.90 in 10.0 mi Variable 5.8 mph - N/A   Clear
6:53 PM 73.0 °F - 34.0 °F 24% 29.91 in 10.0 mi Calm Calm - N/A   Clear
7:53 PM 69.1 °F - 35.1 °F 29% 29.92 in 10.0 mi South 6.9 mph - N/A   Clear
9:53 PM 62.1 °F - 35.1 °F 37% 29.89 in 10.0 mi Calm Calm - N/A   Scattered Clouds
10:53 PM 57.9 °F - 36.0 °F 44% 29.89 in 10.0 mi Calm Calm - N/A   Clear
11:53 PM 55.0 °F - 36.0 °F 49% 29.90 in 10.0 mi South 4.6 mph - N/A   Clear